Date,TemperatureHighF,TemperatureAvgF,TemperatureLowF,DewpointHighF,DewpointAvgF,DewpointLowF,HumidityHigh,HumidityAvg,HumidityLow,PressureMaxIn,PressureMinIn,WindSpeedMaxMPH,WindSpeedAvgMPH,GustSpeedMaxMPH,PrecipitationSumIn
2012-1-1,77,65,56,63,58,55,97,80,52,30.27,30.13,9,2,14,0.00
2012-1-2,65,61,51,61,52,36,96,74,41,30.20,30.07,17,8,25,0.01
2012-1-3,51,44,39,38,24,16,62,46,33,30.40,30.15,18,10,33,0.00
2012-1-4,59,45,35,39,30,22,71,56,38,30.44,30.30,10,4,15,0.00
2012-1-5,68,54,39,54,46,31,94,76,55,30.32,30.15,14,7,23,0.00
2012-1-6,72,59,48,58,52,47,97,80,51,30.24,30.11,7,2,13,0.00
2012-1-7,74,59,49,60,53,47,97,81,53,30.20,30.11,3,1,13,0.01
2012-1-8,76,62,50,64,54,49,97,77,52,30.24,30.15,8,1,12,0.00
2012-1-9,75,65,55,64,59,53,98,84,63,30.23,30.08,9,2,14,0.00
2012-1-10,77,66,56,65,60,55,97,82,59,30.12,29.94,9,3,17,0.00
2012-1-11,71,66,62,67,62,60,93,88,82,29.98,29.74,26,11,41,0.02
2012-1-12,74,66,58,63,60,57,97,84,63,29.94,29.83,21,8,28,0.00
2012-1-13,65,57,49,62,47,36,89,68,48,30.23,29.92,14,9,18,0.00
2012-1-14,56,49,41,41,33,28,74,56,34,30.37,30.20,10,5,18,0.00
2012-1-15,69,54,41,48,41,37,93,64,33,30.45,30.33,9,4,18,0.00
2012-1-16,70,58,46,55,49,41,86,74,55,30.47,30.33,12,4,19,0.00
2012-1-17,74,62,51,63,56,50,97,82,64,30.33,30.15,13,3,18,0.00
2012-1-18,73,64,54,63,59,52,96,86,67,30.16,29.92,22,7,27,0.04
2012-1-19,73,60,49,62,45,33,94,63,25,30.19,30.01,9,4,18,0.01
2012-1-20,74,61,48,58,52,44,96,75,50,30.20,30.11,13,5,18,0.00
2012-1-21,74,63,54,62,57,52,97,81,62,30.16,30.01,14,4,19,0.00
2012-1-22,78,64,53,66,58,52,98,83,48,30.14,30.06,7,1,18,0.01
2012-1-23,77,68,58,67,63,57,98,86,65,30.16,30.04,10,3,18,0.01
2012-1-24,81,70,62,68,64,60,98,84,56,30.18,30.08,8,2,18,0.00
2012-1-25,80,69,60,67,63,59,98,83,51,30.19,30.07,11,5,18,0.01
2012-1-26,78,70,62,67,65,61,98,83,63,30.10,29.94,19,8,23,0.00
2012-1-27,70,68,59,68,64,56,95,89,81,30.07,29.90,24,12,32,0.03
2012-1-28,73,61,54,58,54,51,96,79,47,30.19,30.06,9,4,18,0.01
2012-1-29,74,61,53,55,52,49,95,76,45,30.32,30.17,8,4,18,0.00
2012-1-30,73,60,48,53,50,45,89,70,43,30.39,30.28,12,6,19,0.00
2012-1-31,75,63,52,58,54,50,93,76,53,30.37,30.25,12,5,18,0.00
2012-2-1,79,66,56,64,59,54,96,78,52,30.28,30.13,11,4,18,0.00
2012-2-2,82,69,60,68,62,58,97,80,48,30.19,30.07,11,2,18,0.00
2012-2-3,74,67,61,65,62,60,97,83,65,30.25,30.14,10,5,19,0.00
2012-2-4,78,69,63,66,63,59,94,80,61,30.21,30.07,14,5,20,0.00
2012-2-5,82,71,62,70,66,61,98,85,60,30.09,29.96,9,1,14,0.00
2012-2-6,80,70,66,71,67,64,97,90,68,30.09,29.99,15,3,26,0.08
2012-2-7,70,66,61,66,64,59,98,93,85,30.08,30.00,9,5,17,0.00
2012-2-8,79,65,57,62,56,50,95,76,41,30.11,30.00,8,4,16,0.00
2012-2-9,71,62,56,59,56,52,90,79,61,30.17,30.06,8,5,16,0.00
2012-2-10,80,67,59,70,63,57,96,88,67,30.12,29.88,16,4,24,0.53
2012-2-11,66,60,48,63,51,29,95,75,47,30.14,29.85,23,12,37,0.01
2012-2-12,54,43,33,33,27,19,78,54,33,30.36,30.13,13,6,31,0.00
2012-2-13,67,51,37,51,39,26,83,65,45,30.30,30.11,10,3,17,0.00
2012-2-14,75,63,50,63,56,47,94,77,57,30.14,30.02,17,7,24,0.00
2012-2-15,81,70,59,67,62,56,94,77,53,30.20,30.09,11,4,14,0.00
2012-2-16,78,70,64,67,64,61,91,82,64,30.17,30.02,15,7,21,0.00
2012-2-17,75,69,64,70,67,63,96,91,81,30.07,29.98,9,4,12,0.00
2012-2-18,78,70,66,70,67,65,97,90,74,30.02,29.87,12,3,14,0.00
2012-2-19,80,71,64,72,66,57,96,85,69,29.91,29.73,32,17,39,0.00
2012-2-20,69,60,53,58,52,48,88,75,50,30.22,29.90,15,7,20,0.00
2012-2-21,77,64,52,60,55,49,96,75,45,30.24,30.10,9,3,12,0.00
2012-2-22,75,68,62,67,63,58,95,84,72,30.12,29.88,19,7,39,0.57
2012-2-23,81,73,68,70,68,65,96,85,61,29.95,29.85,21,12,33,0.00
2012-2-24,83,74,67,70,67,65,96,81,56,29.99,29.90,27,15,37,0.00
2012-2-25,71,64,56,69,47,32,93,57,32,30.26,29.98,13,7,26,0.00
2012-2-26,68,63,56,64,54,41,87,74,59,30.34,30.24,11,5,19,0.00
2012-2-27,84,71,66,71,66,63,95,86,59,30.30,30.18,12,3,23,0.00
2012-2-28,79,70,65,69,66,63,98,87,66,30.28,30.18,8,4,16,0.01
2012-2-29,84,73,64,71,67,63,98,84,55,30.23,30.06,11,4,17,0.00
2012-3-1,83,75,69,71,68,66,95,79,59,30.10,29.96,16,8,23,0.00
2012-3-2,82,73,65,71,67,64,97,82,59,30.05,29.92,16,6,22,0.00
2012-3-3,85,76,69,71,68,62,96,79,48,29.93,29.75,26,14,37,0.00
2012-3-4,76,64,53,71,50,31,94,63,30,30.22,29.66,27,14,48,0.16
2012-3-5,75,61,46,53,43,36,86,54,25,30.36,30.21,10,4,19,0.00
2012-3-6,75,64,55,58,54,51,90,71,52,30.42,30.30,15,7,28,0.00
2012-3-7,76,68,60,64,59,54,94,75,57,30.41,30.29,14,6,26,0.01
2012-3-8,81,71,62,68,65,61,97,83,61,30.30,30.16,15,6,22,0.00
2012-3-9,82,72,68,71,68,66,96,87,64,30.20,30.06,19,4,28,0.34
2012-3-10,80,71,67,70,67,65,96,88,67,30.23,30.09,15,6,25,0.01
2012-3-11,70,68,65,68,66,63,97,93,85,30.31,30.20,11,6,21,0.62
2012-3-12,78,70,62,64,61,59,90,75,57,30.30,30.21,10,6,19,0.00
2012-3-13,82,70,60,65,61,58,96,76,52,30.26,30.15,9,4,16,0.01
2012-3-14,83,71,61,66,63,60,97,78,52,30.24,30.14,10,4,19,0.00
2012-3-15,83,71,64,69,65,62,97,81,55,30.25,30.16,12,4,20,0.01
2012-3-16,83,72,63,68,64,62,97,79,52,30.24,30.13,11,4,15,0.00
2012-3-17,82,71,61,67,62,58,98,77,45,30.24,30.13,9,3,16,0.01
2012-3-18,83,72,62,67,62,58,96,73,44,30.25,30.14,9,4,18,0.00
2012-3-19,82,71,62,66,63,61,97,76,52,30.19,30.07,10,4,18,0.01
2012-3-20,82,72,64,67,64,61,95,77,54,30.12,30.03,13,6,21,0.00
2012-3-21,80,72,66,70,67,64,96,84,68,30.15,30.06,22,7,28,0.00
2012-3-22,85,74,65,70,66,64,97,80,54,30.17,30.05,13,6,17,0.00
2012-3-23,87,74,66,70,66,63,96,78,49,30.13,29.98,11,5,17,0.01
2012-3-24,83,75,69,71,68,65,92,78,57,30.03,29.86,20,10,27,0.00
2012-3-25,80,74,68,70,64,52,93,72,42,29.92,29.78,20,12,32,0.05
2012-3-26,84,72,62,63,59,56,93,68,41,30.02,29.87,10,5,20,0.00
2012-3-27,84,71,60,65,60,55,95,71,38,30.19,30.00,12,4,21,0.00
2012-3-28,82,72,63,66,64,61,95,77,52,30.19,30.05,11,5,17,0.00
2012-3-29,84,74,65,68,64,60,94,73,47,30.08,29.94,11,5,16,0.00
2012-3-30,83,74,64,69,64,59,93,73,52,30.06,29.94,13,5,19,0.00
2012-3-31,81,73,68,70,67,62,93,81,64,29.98,29.82,34,11,49,0.54
2012-4-1,86,75,66,70,67,61,96,78,47,29.93,29.82,14,8,29,0.00
2012-4-2,88,77,70,72,68,62,93,74,48,29.91,29.82,12,7,21,0.00
2012-4-3,92,78,66,73,66,58,97,70,35,29.97,29.86,10,3,19,0.00
2012-4-4,88,78,69,71,67,57,92,70,42,29.96,29.77,16,7,23,0.00
2012-4-5,85,77,70,72,69,64,92,77,51,29.84,29.71,19,11,32,0.00
2012-4-6,83,74,66,72,65,51,92,76,35,29.98,29.72,24,12,34,0.13
2012-4-7,79,69,62,59,57,52,84,66,45,30.16,29.97,13,7,24,0.00
2012-4-8,81,70,60,62,56,53,88,65,42,30.20,30.06,10,4,15,0.00
2012-4-9,84,71,59,64,60,56,93,68,41,30.10,29.97,9,3,14,0.00
2012-4-10,87,75,63,68,63,56,92,67,39,30.07,29.93,12,3,18,0.00
2012-4-11,86,75,67,68,62,50,93,68,32,30.04,29.92,15,6,22,0.00
2012-4-12,85,72,63,64,60,53,86,66,36,30.07,29.96,12,5,25,0.00
2012-4-13,86,73,64,66,62,57,89,70,39,30.15,30.02,11,5,18,0.00
2012-4-14,75,70,66,65,63,62,92,79,67,30.24,30.12,16,7,22,0.00
2012-4-15,82,72,62,66,62,59,91,72,50,30.23,30.15,12,6,19,0.00
2012-4-16,81,72,62,67,62,59,92,73,48,30.22,30.12,15,7,21,0.00
2012-4-17,82,72,62,66,62,60,93,72,50,30.18,30.04,14,6,17,0.00
2012-4-18,83,75,66,69,66,61,91,74,50,30.10,29.93,15,7,17,0.00
2012-4-19,81,74,68,72,69,66,95,85,64,29.98,29.87,21,6,27,0.08
2012-4-20,86,73,66,74,69,64,96,87,62,29.92,29.79,18,4,20,0.33
2012-4-21,79,71,66,70,67,64,95,86,69,29.86,29.58,20,8,33,0.17
2012-4-22,79,70,64,69,65,58,96,84,64,29.72,29.49,29,13,35,0.49
2012-4-23,71,66,60,58,50,45,72,57,41,29.89,29.72,28,14,40,0.00
2012-4-24,74,63,52,52,43,33,72,50,31,30.03,29.89,17,8,27,0.00
2012-4-25,84,68,51,61,52,46,92,61,31,30.11,30.01,12,4,17,0.00
2012-4-26,85,73,60,68,62,56,92,69,41,30.14,30.01,12,4,21,0.00
2012-4-27,89,75,62,68,64,58,96,71,39,30.13,30.00,12,4,18,0.00
2012-4-28,88,76,65,73,68,63,96,77,50,30.10,30.01,13,5,20,0.00
2012-4-29,87,76,69,73,70,66,97,81,52,30.11,30.02,11,4,19,0.00
2012-4-30,87,77,69,72,69,66,96,78,52,30.11,30.03,13,6,24,0.00
2012-5-1,86,77,71,73,70,68,93,79,58,30.10,30.01,15,7,22,0.00
2012-5-2,86,77,68,71,69,66,96,78,52,30.10,30.03,13,7,22,0.00
2012-5-3,88,77,68,73,69,67,96,78,52,30.11,30.02,14,6,21,0.00
2012-5-4,88,77,69,73,69,67,95,78,54,30.10,29.97,11,4,17,0.00
2012-5-5,93,80,71,73,70,65,94,73,44,30.02,29.88,9,4,15,0.00
2012-5-6,90,80,73,76,72,68,95,76,52,29.96,29.84,17,7,35,0.00
2012-5-7,89,76,72,76,70,66,95,81,56,29.91,29.84,15,4,29,0.04
2012-5-8,89,76,68,74,70,66,96,82,52,29.91,29.80,14,3,22,0.46
2012-5-9,87,77,71,76,72,69,97,85,64,29.87,29.74,23,8,30,0.08
2012-5-10,88,78,69,73,68,56,94,75,34,29.93,29.75,12,6,18,0.00
2012-5-11,86,76,68,67,64,59,92,68,45,30.12,29.90,11,5,20,0.00
2012-5-12,85,75,65,69,64,59,87,69,48,30.19,30.09,12,6,20,0.00
2012-5-13,81,74,66,70,66,62,90,77,65,30.14,30.02,12,5,17,0.00
2012-5-14,83,76,72,74,71,68,95,84,60,30.06,29.92,9,4,14,0.05
2012-5-15,92,78,70,74,70,68,95,79,49,30.03,29.89,24,4,31,0.14
2012-5-16,81,73,69,74,70,68,97,90,73,30.01,29.92,10,4,19,0.42
2012-5-17,89,76,70,75,70,67,98,84,55,29.96,29.80,10,4,18,0.26
2012-5-18,90,77,68,74,69,66,94,79,49,29.94,29.85,12,4,18,0.00
2012-5-19,88,77,70,72,69,66,95,77,51,30.01,29.89,13,6,20,0.00
2012-5-20,89,77,68,68,64,47,92,68,27,30.00,29.90,11,5,17,0.00
2012-5-21,90,78,68,70,66,62,91,70,40,29.99,29.87,11,5,22,0.00
2012-5-22,92,80,69,74,68,61,92,69,39,29.97,29.83,15,4,21,0.00
2012-5-23,94,80,71,74,71,64,96,75,39,29.92,29.82,15,5,23,0.00
2012-5-24,90,80,71,75,72,70,96,80,59,29.91,29.85,12,5,23,0.00
2012-5-25,92,81,73,76,73,70,96,77,51,30.05,29.89,11,5,20,0.00
2012-5-26,94,81,71,74,70,65,97,72,41,30.05,29.93,13,4,24,0.01
2012-5-27,90,80,74,74,71,68,89,74,51,29.96,29.77,17,9,31,0.01
2012-5-28,84,76,71,77,73,68,95,89,76,29.93,29.78,30,11,43,1.37
2012-5-29,83,77,74,78,74,71,96,90,73,29.94,29.83,29,10,42,0.10
2012-5-30,90,82,76,79,76,72,95,82,60,29.88,29.77,21,10,29,0.00
2012-5-31,92,82,76,79,75,71,96,81,52,29.92,29.81,0,0,0,0.02
2012-6-1,80,76,71,75,73,69,96,91,81,29.95,29.83,0,0,0,1.12
2012-6-2,89,80,72,76,73,71,97,81,60,29.95,29.86,0,0,0,0.00
2012-6-3,92,82,71,72,68,63,91,67,41,30.03,29.92,0,0,0,0.00
2012-6-4,90,82,74,76,73,68,87,75,58,29.98,29.80,19,2,23,0.00
2012-6-5,87,79,74,78,75,70,93,88,70,29.85,29.77,21,11,29,0.28
2012-6-6,85,77,72,78,73,67,94,87,74,29.93,29.81,27,9,41,0.23
2012-6-7,84,76,71,77,73,70,97,91,73,29.98,29.89,18,6,23,0.95
2012-6-8,84,77,72,78,74,71,98,91,75,29.97,29.88,12,3,15,0.14
2012-6-9,87,76,72,78,74,72,97,92,69,30.04,29.91,10,3,14,0.83
2012-6-10,91,79,71,79,75,70,98,86,64,30.21,29.98,23,6,30,0.39
2012-6-11,92,80,70,80,74,69,98,83,63,30.11,30.03,11,4,16,0.00
2012-6-12,94,80,72,78,72,70,94,80,52,30.09,29.90,23,4,44,0.29
2012-6-13,94,81,73,79,74,69,94,79,50,29.97,29.83,13,6,27,0.05
2012-6-14,91,78,72,78,73,69,97,87,60,30.01,29.86,19,4,36,0.87
2012-6-15,89,79,72,76,72,65,98,82,51,30.04,29.93,13,5,23,0.01
2012-6-16,88,79,72,73,70,66,95,74,54,30.06,29.98,13,6,21,0.00
2012-6-17,87,78,71,73,69,66,95,76,55,30.06,29.94,10,4,16,0.00
2012-6-18,88,78,70,72,69,65,97,75,49,30.06,29.96,11,4,19,0.00
2012-6-19,88,78,70,71,68,64,90,73,48,30.08,30.01,12,6,18,0.00
2012-6-20,84,77,74,76,72,68,97,86,69,30.05,29.97,11,6,19,0.52
2012-6-21,88,80,73,77,74,72,98,85,67,30.00,29.87,18,5,23,0.01
2012-6-22,88,79,75,79,75,73,96,90,70,29.92,29.83,18,5,21,0.82
2012-6-23,83,78,74,77,75,73,96,89,79,29.96,29.84,11,5,14,0.01
2012-6-24,79,76,74,76,74,72,96,93,89,29.95,29.76,22,11,29,1.82
2012-6-25,82,79,76,76,76,74,95,89,80,29.78,29.65,29,20,43,0.86
2012-6-26,84,80,78,78,76,75,93,88,80,29.66,29.56,26,19,38,0.47
2012-6-27,87,78,73,78,74,66,97,86,70,29.99,29.58,22,12,29,0.26
2012-6-28,92,79,66,70,65,58,96,67,35,30.08,29.98,8,2,19,0.00
2012-6-29,92,82,73,78,73,69,91,76,55,30.04,29.90,10,5,17,0.00
2012-6-30,92,82,73,80,74,70,94,78,59,29.99,29.90,14,7,20,0.00
2012-7-1,93,83,74,78,75,72,94,77,56,30.06,29.94,15,7,21,0.00
2012-7-2,94,84,76,79,75,70,95,76,53,30.07,29.95,13,5,23,0.00
2012-7-3,96,84,77,78,75,70,90,75,49,30.06,29.93,19,3,26,0.02
2012-7-4,92,81,76,79,74,71,93,82,57,30.07,30.00,26,3,36,0.09
2012-7-5,94,83,74,78,75,70,95,77,50,30.06,29.94,9,3,16,0.09
2012-7-6,94,84,76,78,75,72,95,76,52,30.05,29.96,15,4,20,0.00
2012-7-7,94,85,76,78,75,69,92,73,46,30.07,30.00,13,5,18,0.00
2012-7-8,96,85,77,80,76,72,94,76,48,30.09,29.99,13,4,20,0.00
2012-7-9,93,84,78,80,76,72,93,77,53,30.03,29.93,13,4,24,0.00
2012-7-10,94,82,77,79,76,72,93,81,52,30.03,29.94,34,5,45,0.05
2012-7-11,83,77,73,78,74,71,96,91,82,30.06,29.94,13,3,20,1.25
2012-7-12,88,78,73,79,74,72,97,88,66,30.02,29.92,20,3,26,0.22
2012-7-13,91,81,73,78,74,72,96,81,60,30.07,29.97,13,6,19,0.02
2012-7-14,91,83,76,78,74,72,95,77,54,30.10,30.00,14,6,21,0.00
2012-7-15,88,78,74,77,74,72,96,88,65,30.10,30.02,15,2,20,0.53
2012-7-16,91,79,75,78,75,72,95,87,58,30.07,29.94,16,5,22,0.06
2012-7-17,88,79,76,79,75,73,95,88,68,30.02,29.94,20,6,31,0.00
2012-7-18,89,81,76,79,76,74,95,84,63,30.11,29.98,19,7,27,0.05
2012-7-19,92,82,75,81,76,69,93,82,62,30.16,30.05,19,6,29,0.00
2012-7-20,93,83,74,80,75,71,94,78,57,30.11,30.01,11,4,15,0.00
2012-7-21,94,84,77,79,77,74,95,79,59,30.11,30.01,12,5,20,0.00
2012-7-22,92,81,74,80,76,71,96,86,62,30.17,30.06,25,4,37,0.42
2012-7-23,89,78,74,82,75,71,97,90,67,30.16,30.06,25,5,37,0.74
2012-7-24,91,81,73,81,76,72,97,87,68,30.13,30.00,19,5,30,0.01
2012-7-25,93,84,77,81,78,75,95,82,58,30.02,29.94,15,8,22,0.00
2012-7-26,94,85,78,80,78,74,95,79,57,30.02,29.94,15,8,20,0.00
2012-7-27,96,86,77,80,77,73,94,76,50,30.07,29.95,15,5,19,0.00
2012-7-28,96,86,78,80,77,72,93,74,48,30.09,29.98,19,4,25,0.00
2012-7-29,93,86,79,80,77,73,93,77,53,30.06,29.94,13,6,20,0.00
2012-7-30,93,83,77,80,76,70,92,80,60,30.03,29.96,20,7,32,0.00
2012-7-31,92,82,77,79,76,73,94,83,61,30.02,29.94,23,6,30,0.07
2012-8-1,87,81,77,80,77,74,94,87,76,30.00,29.90,27,6,36,0.44
2012-8-2,94,84,79,81,76,-100,94,78,55,29.98,29.88,14,6,20,0.00
2012-8-3,-200,0,200,-100,-100,-100,0,0,100,30.02,29.91,18,3,31,0.00
2012-8-4,90,22,82,79,-54,-100,88,19,65,30.04,29.94,11,4,21,0.08
2012-8-5,89,28,79,78,-40,-100,88,27,66,30.09,30.00,12,6,23,0.01
2012-8-6,91,46,76,80,0,-100,97,48,62,30.09,29.96,20,5,31,1.03
2012-8-7,93,80,74,80,76,73,97,87,59,30.03,29.94,23,4,31,0.11
2012-8-8,94,83,76,82,76,71,95,83,54,30.04,29.94,21,5,44,0.01
2012-8-9,95,83,74,80,75,72,96,79,55,30.03,29.89,14,3,20,0.42
2012-8-10,94,82,75,79,76,72,97,85,52,29.98,29.89,14,4,25,0.21
2012-8-11,93,82,77,79,76,73,93,84,58,30.00,29.88,20,4,29,0.06
2012-8-12,92,82,77,81,77,74,93,85,62,30.03,29.95,20,5,26,0.00
2012-8-13,94,82,77,80,77,75,95,84,57,30.06,29.98,14,4,25,0.02
2012-8-14,96,84,76,80,77,74,93,80,54,30.03,29.94,18,3,29,0.49
2012-8-15,94,83,74,80,76,72,96,82,57,30.04,29.93,16,3,30,0.97
2012-8-16,96,82,74,82,76,73,97,83,56,30.06,29.95,12,2,21,0.00
2012-8-17,90,81,77,81,76,72,94,86,64,30.02,29.92,32,5,43,0.07
2012-8-18,85,80,75,80,76,72,96,89,79,29.99,29.87,26,8,34,0.18
2012-8-19,91,81,75,80,77,74,97,88,63,29.97,29.87,23,8,28,0.39
2012-8-20,92,82,77,81,77,74,96,84,61,30.03,29.84,25,7,35,0.32
2012-8-21,90,78,73,79,74,69,97,89,64,30.09,29.93,19,7,35,0.27
2012-8-22,87,77,74,78,74,71,96,89,69,30.09,29.97,25,6,43,0.02
2012-8-23,93,82,75,77,74,71,96,79,53,30.09,30.00,8,3,16,0.00
2012-8-24,92,81,75,77,74,71,91,80,57,30.06,29.95,10,4,18,0.00
2012-8-25,88,79,74,79,74,71,95,84,68,30.02,29.96,13,6,24,0.01
2012-8-26,84,80,77,79,77,74,94,91,83,29.99,29.84,13,8,25,0.12
2012-8-27,80,78,74,78,76,72,97,94,90,29.90,29.79,24,10,42,1.39
2012-8-28,86,80,77,80,77,74,95,91,79,29.99,29.88,21,10,29,0.30
2012-8-29,88,81,75,79,76,74,97,87,71,29.99,29.89,18,7,22,0.00
2012-8-30,93,81,75,81,76,72,97,86,58,30.10,29.94,18,3,34,1.42
2012-8-31,92,82,75,80,76,74,98,85,59,30.17,30.07,10,3,18,0.03
2012-9-1,92,83,76,79,75,71,98,79,50,30.14,30.04,9,3,19,0.01
2012-9-2,90,81,72,75,72,68,97,76,51,30.08,29.96,8,3,17,0.00
2012-9-3,94,81,71,76,73,67,96,77,44,30.05,29.94,10,3,14,0.00
2012-9-4,94,82,75,78,74,69,94,78,48,30.02,29.89,13,4,23,0.01
2012-9-5,94,81,72,79,75,70,97,83,53,29.98,29.87,22,6,31,1.31
2012-9-6,88,78,73,78,74,72,97,89,68,30.01,29.92,25,5,34,1.21
2012-9-7,92,80,74,79,75,72,96,85,59,29.99,29.87,12,5,21,0.49
2012-9-8,91,82,75,79,76,74,97,83,61,29.94,29.83,8,1,11,0.00
2012-9-9,83,80,76,79,77,74,95,90,83,29.94,29.84,0,0,0,0.17
2012-9-10,90,81,76,81,76,72,97,86,68,30.01,29.90,0,0,0,0.00
2012-9-11,88,80,74,75,72,67,92,78,60,30.13,30.00,0,0,0,0.00
2012-9-12,88,79,72,76,72,68,94,78,56,30.13,30.05,0,0,0,0.00
2012-9-13,89,80,74,76,73,69,93,79,58,30.10,30.01,0,0,0,0.00
2012-9-14,84,78,73,77,74,71,97,89,77,30.07,29.98,0,0,0,1.18
2012-9-15,86,79,73,79,74,71,96,86,66,30.08,29.99,0,0,0,0.14
2012-9-16,90,80,74,76,73,70,96,82,53,30.05,29.96,0,0,0,0.00
2012-9-17,89,79,73,77,74,71,96,85,58,30.01,29.88,19,2,33,0.57
2012-9-18,86,77,74,79,75,72,96,93,77,29.95,29.84,22,9,28,0.56
2012-9-19,89,78,75,80,75,73,97,92,70,30.03,29.88,18,5,28,0.23
2012-9-20,92,80,72,80,75,70,96,85,63,30.02,29.91,9,2,16,0.31
2012-9-21,91,78,72,78,74,70,98,89,62,30.00,29.89,15,3,22,0.28
2012-9-22,88,78,73,77,74,71,97,86,65,30.02,29.93,7,2,11,0.00
2012-9-23,93,81,72,76,72,67,98,78,47,30.06,29.97,6,2,12,0.01
2012-9-24,87,77,70,73,66,61,90,70,44,30.09,30.00,9,4,16,0.00
2012-9-25,88,76,68,74,68,63,92,78,49,30.09,30.01,10,2,18,0.00
2012-9-26,93,80,71,77,73,70,98,83,51,30.10,30.02,7,2,16,0.00
2012-9-27,94,81,74,78,74,71,98,83,50,30.10,29.98,10,3,18,0.10
2012-9-28,92,79,73,78,74,72,98,86,57,30.05,29.93,9,3,14,0.01
2012-9-29,91,80,74,78,75,72,98,84,57,29.98,29.83,11,3,15,0.00
2012-9-30,88,81,75,78,76,73,96,85,66,29.89,29.75,16,4,18,0.00
2012-10-1,88,80,74,79,76,73,98,90,70,29.83,29.69,16,6,23,1.81
2012-10-2,86,79,76,78,76,74,96,91,77,30.02,29.79,17,10,20,0.17
2012-10-3,89,79,74,79,76,73,97,91,69,30.16,30.00,20,6,26,0.06
2012-10-4,92,80,74,81,75,72,98,87,61,30.17,30.04,13,3,20,0.08
2012-10-5,91,78,74,80,75,73,98,91,69,30.12,29.96,10,3,14,0.22
2012-10-6,92,79,73,80,75,68,99,88,63,29.97,29.85,12,2,17,0.00
2012-10-7,87,79,72,77,74,71,97,85,67,29.98,29.90,10,3,14,0.00
2012-10-8,86,78,74,78,75,73,97,89,66,30.01,29.91,9,2,14,0.09
2012-10-9,89,78,73,78,73,69,98,87,66,30.05,29.94,9,4,18,0.01
2012-10-10,87,76,69,73,68,65,93,79,50,30.10,30.01,7,3,13,0.00
2012-10-11,85,75,67,72,68,66,97,81,59,30.15,30.07,9,4,19,0.01
2012-10-12,85,75,67,71,66,60,92,75,43,30.17,30.08,9,5,18,0.00
2012-10-13,85,76,69,71,68,66,92,77,55,30.17,30.08,12,5,19,0.00
2012-10-14,87,78,71,74,71,68,92,79,61,30.11,29.97,10,5,15,0.00
2012-10-15,89,78,72,77,73,70,97,85,58,29.98,29.80,10,2,12,0.00
2012-10-16,87,76,70,72,69,64,94,79,56,29.86,29.77,8,4,13,0.00
2012-10-17,81,74,68,74,69,64,93,84,68,29.88,29.79,6,2,8,0.00
2012-10-18,86,78,71,76,72,69,96,83,64,29.89,29.77,10,4,14,0.00
2012-10-19,90,79,71,75,72,68,95,79,56,29.86,29.77,10,4,15,0.00
2012-10-20,84,75,64,72,62,54,92,64,40,29.95,29.82,10,5,18,0.00
2012-10-21,83,71,60,63,58,54,87,67,45,30.05,29.94,9,4,16,0.00
2012-10-22,84,73,64,69,64,61,92,75,54,30.08,29.99,12,6,22,0.00
2012-10-23,84,74,66,70,66,63,93,76,58,30.06,29.97,12,6,20,0.00
2012-10-24,86,77,69,72,69,66,89,78,56,30.01,29.90,12,6,19,0.00
2012-10-25,83,76,72,74,72,69,95,87,71,29.93,29.79,14,6,21,0.07
2012-10-26,84,76,70,72,69,66,95,80,61,29.79,29.57,20,10,32,0.23
2012-10-27,73,70,67,66,64,62,85,80,75,29.66,29.50,17,12,28,0.00
2012-10-28,73,68,60,65,62,56,92,83,73,29.77,29.65,22,14,27,0.00
2012-10-29,69,60,51,57,50,43,91,70,45,29.84,29.70,20,14,30,0.00
2012-10-30,67,58,50,53,45,36,82,62,46,29.93,29.80,28,15,39,0.00
2012-10-31,72,62,52,57,49,43,85,65,42,30.03,29.93,22,10,31,0.00
2012-11-1,78,68,61,65,61,56,93,79,59,30.02,29.90,20,9,25,0.00
2012-11-2,79,67,56,61,56,49,95,70,40,30.08,29.99,11,4,16,0.01
2012-11-3,83,69,58,70,62,56,96,78,53,30.11,30.02,8,2,13,0.00
2012-11-4,82,70,59,68,63,58,97,80,52,30.10,29.96,9,2,14,0.00
2012-11-5,80,71,63,70,65,59,96,82,60,29.99,29.89,9,4,14,0.00
2012-11-6,77,67,61,66,60,56,93,81,65,29.94,29.78,16,4,22,0.01
2012-11-7,67,60,54,58,52,47,95,75,54,29.98,29.82,17,8,30,0.00
2012-11-8,68,57,49,50,46,43,88,69,46,30.17,29.97,10,4,18,0.00
2012-11-9,74,59,48,53,48,38,96,70,30,30.25,30.16,9,3,17,0.01
2012-11-10,76,63,52,59,54,48,92,73,51,30.31,30.22,10,4,18,0.00
2012-11-11,80,68,59,66,62,56,95,81,56,30.29,30.21,12,4,22,0.04
2012-11-12,79,70,63,70,65,62,97,86,63,30.24,30.15,12,4,17,0.01
2012-11-13,81,70,62,69,65,61,98,85,56,30.17,30.08,6,2,14,0.01
2012-11-14,78,69,64,70,66,62,98,91,75,30.17,30.08,9,4,16,0.00
2012-11-15,66,64,60,65,62,58,97,94,91,30.14,30.05,7,4,14,0.00
2012-11-16,70,62,57,62,58,55,95,86,71,30.16,30.08,9,5,16,0.00
2012-11-17,78,67,60,66,62,58,95,84,63,30.15,30.06,10,6,17,0.00
2012-11-18,72,64,56,63,60,54,93,85,70,30.18,30.09,12,6,21,0.00
2012-11-19,60,57,55,56,54,53,94,90,86,30.15,30.06,8,6,14,0.00
2012-11-20,74,62,56,62,57,52,95,83,65,30.06,29.97,10,5,19,0.00
2012-11-21,73,62,55,57,53,49,91,74,45,30.07,29.98,10,5,17,0.00
2012-11-22,71,59,49,53,46,35,85,63,34,30.17,30.04,13,6,24,0.00
2012-11-23,74,58,46,53,45,39,87,65,31,30.19,30.07,7,3,14,0.00
2012-11-24,74,62,52,62,54,49,96,79,56,30.09,29.98,11,5,17,0.00
2012-11-25,73,57,45,52,45,36,93,68,27,30.16,30.06,6,2,13,0.00
2012-11-26,76,62,48,64,55,46,100,80,57,30.22,30.12,8,2,13,0.01
2012-11-27,76,66,58,66,62,57,98,86,67,30.18,30.07,11,2,14,0.00
2012-11-28,69,62,55,61,58,53,96,89,74,30.26,30.09,9,4,16,0.01
2012-11-29,75,62,53,62,56,52,97,81,57,30.27,30.21,12,5,18,0.00
2012-11-30,76,64,56,63,57,54,96,80,55,30.26,30.16,12,4,17,0.01
2012-12-1,77,65,58,65,61,56,97,85,65,30.24,30.17,11,4,17,0.01
2012-12-2,80,68,60,67,63,58,98,84,60,30.27,30.18,8,3,15,0.01
2012-12-3,78,69,61,66,63,60,95,82,53,30.28,30.19,8,2,15,0.00
2012-12-4,78,67,57,64,59,55,98,78,50,30.28,30.17,9,3,15,0.01
2012-12-5,78,68,58,66,62,55,95,84,62,30.19,30.03,10,4,18,0.00
2012-12-6,80,69,61,67,63,60,99,84,56,30.05,29.92,8,3,15,0.01
2012-12-7,78,68,63,70,65,62,98,91,69,30.01,29.91,6,3,11,0.00
2012-12-8,82,70,63,71,66,62,99,90,64,30.05,29.96,6,2,14,0.00
2012-12-9,83,72,66,73,68,64,97,88,66,30.08,29.98,9,2,14,0.00
2012-12-10,79,72,66,74,70,64,99,93,84,30.01,29.81,18,7,23,0.14
2012-12-11,83,73,69,75,71,67,98,92,73,30.02,29.87,11,3,23,0.01
2012-12-12,78,71,65,74,70,64,97,94,85,30.08,29.98,16,5,22,0.15
2012-12-13,65,61,56,64,59,54,96,93,87,30.18,30.03,11,6,21,0.00
2012-12-14,72,62,57,64,58,55,95,89,74,30.22,30.10,12,6,21,0.00
2012-12-15,79,66,58,69,62,57,98,87,60,30.16,30.04,8,3,20,0.00
2012-12-16,76,68,61,69,65,60,98,89,72,30.05,29.94,12,3,20,0.00
2012-12-17,79,71,65,69,67,64,99,87,68,29.97,29.84,18,6,23,0.01
2012-12-18,80,71,57,71,64,51,96,80,56,30.02,29.85,19,10,26,0.00
2012-12-19,80,64,50,63,54,48,94,75,41,30.11,30.01,6,2,20,0.00
2012-12-20,77,69,59,68,64,58,97,84,68,30.08,29.91,19,9,23,0.18
2012-12-21,70,56,48,68,44,28,95,64,35,30.19,29.90,22,14,32,0.03
2012-12-22,63,50,40,40,31,24,81,50,33,30.27,30.17,14,7,20,0.00
2012-12-23,69,53,38,46,39,29,93,64,24,30.27,30.13,5,1,20,0.00
2012-12-24,69,60,51,59,52,42,87,75,59,30.13,29.97,19,4,22,0.00
2012-12-25,72,64,55,63,59,52,96,84,71,30.03,29.89,12,4,20,0.00
2012-12-26,76,66,53,68,61,48,94,86,70,29.97,29.73,27,16,35,0.17
2012-12-27,63,50,40,48,42,36,93,76,51,30.11,29.97,12,5,20,0.00
2012-12-28,70,58,43,64,52,42,96,82,56,30.11,29.93,8,4,20,0.33
2012-12-29,74,67,52,71,63,47,97,87,68,30.13,29.84,22,14,29,0.05
2012-12-30,56,48,39,47,41,34,86,77,65,30.36,30.12,12,7,22,0.00
2012-12-31,73,60,47,60,53,44,95,80,62,30.34,30.19,15,5,20,0.00
2013-1-1,74,64,54,64,59,52,97,84,67,30.21,30.03,17,3,23,0.00